sat.trackr.live / text

‹ back to catalog

STARLINK-5108

NORAD 53992 · 2022-125AE

PAYLOAD ACTIVE UNKNOWN

§ Identity

Operator
Country
US
Launch date
2022-10-05
Launch site
AFWTR
Launch vehicle
Mass (kg)
RCS (m²)

Purposes: comms

External: N2YO · Heavens-Above · Gunter

§ Orbital elements

Epoch: 2026-09-20T13:36:25.168608Z

Period
93.85 min
Inclination
53.1620°
Eccentricity
0.0001246
Mean motion
15.34391625 rev/d
Perigee alt
461.9 km
Apogee alt
463.6 km
Semi-major
6,840.9 km
B*
2.8230e-5
RAAN
51.5232°
Arg perigee
79.0151°
Mean anomaly
281.0992°
Rev number
21,897

§ Raw data

STARLINK-51081 53992U 22125AE  26263.56695797  .00000577  00000+0  28230-4 0  99902 53992  53.1620  51.5232 0001246  79.0151 281.0992 15.34391625218978

JSON: /api/v1/satellites/53992 · /tle

For live sub-satellite position, see the globe view (requires WebGL).

§ Visibility from observer

Set your observer location to see the next 7 days of passes ≥ 10°. The values pass through the URL so the page stays shareable.

No JS? Fill the form by hand. The geolocation button needs JavaScript.